[[{"header":{"parameterUnit":"m.s-1","parameterCategory":1,"la1":30.2991,"la2":30.254,"lo1":-89.0895,"lo2":-89.0444,"dy":0.0017,"dx":0.0017,"nx":28,"ny":28,"refTime":"2024-09-27T03:00:00:Z","depth":0,"parameterNumber":2,"parameterNumberName":"U-component_of_WINDS"},"data":[0,0,0,0,0,0,0,0,0,0,0,0,0,0,0,0,0,0,0,0,0,0,0,0,0,0,0,0,0,0,0,0,0,0,0,0,0,0,0,0,0,0,0,0,0,0,0,0,0,0,0,0,0,0,0,0,0,0,5.8985,5.8987,0,5.9148,5.915,5.9152,5.9081,5.9077,5.9073,5.9069,5.9238,5.9246,5.9254,0,0,0,0,0,0,0,0,0,0,0,0,0,5.8615,5.8622,5.8985,5.8987,5.8989,5.9148,5.915,5.9152,5.9082,5.9077,5.9072,5.9068,5.9235,5.9245,5.9254,0,0,0,0,0,0,0,0,0,0,0,0,0,5.8776,5.8624,5.8985,5.8973,5.8974,5.9147,5.915,5.9153,5.9083,5.9077,5.9071,5.9065,5.9232,5.9244,5.9256,5.9451,0,0,5.9293,5.9299,0,0,0,0,0,0,0,0,5.8767,5.879,5.8973,5.8974,5.8975,5.9088,5.9081,5.9253,5.9084,5.9041,5.9069,5.9062,5.9193,5.9208,5.9252,5.9459,5.9466,5.9294,5.9302,5.9307,5.9311,0,0,0,0,0,0,0,5.8756,5.8783,5.905,5.8976,5.8977,5.896,5.8977,5.9113,5.9149,5.9045,5.904,5.906,5.9192,5.924,5.9255,5.9468,5.9294,5.9305,5.9313,5.9317,5.9845,5.9851,0,0,0,0,0,0,5.8745,5.8774,5.9044,5.9054,5.8854,5.8972,5.899,5.9058,5.9147,5.9155,5.9065,5.9056,5.9222,5.9241,5.9261,5.9495,5.9307,5.9318,5.9326,5.9838,5.9846,5.9853,0,0,0,0,0,0,5.8737,5.877,5.9038,5.8913,5.8946,5.8984,5.9061,5.9064,5.9112,5.9162,5.9168,5.9107,5.9218,5.9243,5.9404,5.95,5.9324,5.9335,5.983,5.9841,5.985,5.9966,0,0,0,0,0,0,5.8727,5.8767,5.8841,5.8915,5.8953,5.9179,5.9067,5.9072,5.9133,5.9123,5.9203,5.9211,5.9215,5.9386,5.9416,5.9514,5.9345,5.9822,5.9835,5.9847,5.9954,5.9979,6.0,0,0,0,0,0,5.8714,5.8868,5.8845,5.8878,5.9046,5.9184,5.9206,5.9207,5.9141,5.9216,5.9249,5.9208,5.9485,5.9403,5.9437,5.9539,5.9816,5.9831,5.9846,5.9943,5.9974,6.0,0,0,0,0,0,0,5.8804,5.8877,5.8853,5.9036,5.9104,5.9172,5.9266,5.9239,5.9328,5.9315,5.9313,5.9332,5.9499,5.9535,5.9443,5.9733,5.964,5.9663,5.9703,5.9733,5.9755,5.9743,5.9355,0,0,0,0,0,5.8846,5.8951,5.9009,5.9164,5.92,5.9228,5.9288,5.9283,5.9354,5.9383,5.9427,5.9498,5.9601,5.9669,5.9766,5.9959,5.9976,6.0046,6.0069,6.0088,6.0107,6.0212,6.0244,5.9902,5.9902,5.9902,0,0,5.8932,5.8985,5.9051,5.9184,5.9237,5.9347,5.9253,5.9373,5.9454,5.9401,5.9556,5.9591,5.967,5.9848,5.9928,5.9883,6.0205,6.0107,6.0121,6.0131,6.0231,6.0263,6.0292,5.9913,5.9911,5.9909,0,0,5.9145,5.9196,5.9331,5.9385,5.9466,5.9484,5.9516,5.9589,5.961,5.9765,5.9727,5.9825,6.0002,6.006,6.0113,6.0349,6.0316,6.0381,6.0502,6.0605,6.0631,6.0655,6.074,6.077,6.04,6.0401,6.0401,0,5.9242,5.9406,5.9404,5.9527,5.9587,5.9544,5.9681,5.9734,5.9843,5.9886,5.9834,6.0055,6.0106,6.0296,6.0354,6.0398,6.0436,6.0372,6.0628,6.0652,6.0674,6.0755,6.0786,6.0408,6.0407,6.0406,6.0406,0,5.9521,5.9636,5.9735,5.9841,5.9912,6.0042,6.006,6.0132,6.0122,6.0145,6.0304,6.0363,6.0471,6.0516,6.0507,6.0707,6.0676,6.0626,6.0533,6.0714,6.079,6.0821,6.0419,6.0416,6.0414,6.0412,0,0,5.9796,5.9899,5.9936,5.9984,6.007,6.0158,6.0287,6.0393,6.0455,6.0532,6.064,6.0791,6.0745,6.0805,6.0802,6.0892,6.1076,6.0831,6.0833,6.0875,6.1301,6.1338,6.1373,6.1055,6.1061,6.1065,6.1294,0,6.0016,6.024,6.0242,6.0449,6.0554,6.0515,6.0627,6.0692,6.0718,6.0812,6.084,6.0947,6.0879,6.0915,6.1002,6.1036,6.1162,6.1019,6.1156,6.1161,6.1137,6.1413,6.1452,6.1665,6.1323,6.1329,6.1332,0,6.0302,6.0388,6.0605,6.0676,6.0721,6.0821,6.0919,6.1009,6.1082,6.1095,6.1162,6.1146,6.1277,6.118,6.1362,6.1264,6.1321,6.1346,6.1354,6.1367,6.1257,6.1433,6.1733,6.1765,6.1379,6.1375,6.1372,0,6.0481,6.0651,6.0802,6.0845,6.0932,6.1003,6.1043,6.1111,6.1174,6.126,6.1302,6.1402,6.1457,6.1535,6.1547,6.1475,6.1729,6.1633,6.1743,6.1743,6.1799,6.1795,6.2112,6.1835,6.1835,6.1834,6.1833,0,6.0726,6.0861,6.0884,6.0978,6.1127,6.1129,6.1277,6.1311,6.1372,6.1472,6.1444,6.1538,6.1548,6.1645,6.1655,6.1804,6.1829,6.1843,6.1844,6.1846,6.1844,6.1883,6.1868,6.1842,6.1841,6.1839,6.1838,0,6.0951,6.0972,6.1135,6.1204,6.1225,6.1332,6.1392,6.1481,6.1504,6.1631,6.166,6.1697,6.181,6.1829,6.1963,6.1969,6.2148,6.2134,6.2123,6.2121,6.2231,6.222,6.2583,6.2631,6.2323,6.2326,6.2328,0,6.1107,6.1209,6.1289,6.1354,6.1397,6.1502,6.1566,6.1572,6.1641,6.1733,6.1812,6.1923,6.2011,6.2195,6.2233,6.2336,6.2324,6.2444,6.2339,6.2337,6.2326,6.232,6.233,6.2464,6.2467,6.247,6.2472,0,6.138,6.1385,6.148,6.1579,6.1657,6.1735,6.1809,6.1863,6.1879,6.1958,6.2074,6.2142,6.2279,6.2389,6.2491,6.2532,6.2506,6.2505,6.2536,6.2539,6.2528,6.2536,6.2178,6.2497,6.2494,6.2492,6.2491,6.249,6.1575,6.1664,6.1735,6.1841,6.1897,6.1967,6.2055,6.2088,6.2184,6.2295,6.2293,6.242,6.2492,6.2626,6.2674,6.2774,6.2735,6.278,6.2792,6.2803,6.2813,6.2512,6.2793,6.2792,6.2791,6.2791,6.279,0,6.1847,6.189,6.1988,6.2092,6.2176,6.2143,6.2223,6.2296,6.2408,6.2477,6.2564,6.2698,6.2805,6.2852,6.2957,6.3028,6.3019,6.3056,6.305,6.306,6.2842,6.2804,6.3061,6.3061,6.3061,6.3061,6.3061,6.3061,6.1999,6.2148,6.2162,6.2339,6.2382,6.2505,6.2554,6.2618,6.2673,6.2823,6.2912,6.2941,6.3002,6.3112,6.3209,6.322,6.326,6.3303,6.3309,6.3103,6.3076,6.305,6.3014,6.3312,6.3312,6.3519,6.3521,6.3522]},{"header":{"parameterUnit":"m.s-1","parameterCategory":1,"la1":30.2991,"la2":30.254,"lo1":-89.0895,"lo2":-89.0444,"dy":0.0017,"dx":0.0017,"nx":28,"ny":28,"refTime":"2024-09-27T03:00:00:Z","depth":0,"parameterNumber":3,"parameterNumberName":"V-component_of_WINDS"},"data":[0,0,0,0,0,0,0,0,0,0,0,0,0,0,0,0,0,0,0,0,0,0,0,0,0,0,0,0,0,0,0,0,0,0,0,0,0,0,0,0,0,0,0,0,0,0,0,0,0,0,0,0,0,0,0,0,0,0,-3.037,-3.0371,0,-3.0482,-3.0483,-3.0484,-3.0463,-3.0461,-3.0459,-3.0457,-3.0572,-3.0576,-3.0581,0,0,0,0,0,0,0,0,0,0,0,0,0,-3.0138,-3.0143,-3.037,-3.0371,-3.0372,-3.0481,-3.0483,-3.0484,-3.0463,-3.046,-3.0458,-3.0456,-3.057,-3.0576,-3.0582,0,0,0,0,0,0,0,0,0,0,0,0,0,-3.0243,-3.0144,-3.0369,-3.0375,-3.0376,-3.0481,-3.0483,-3.0485,-3.0463,-3.046,-3.0457,-3.0455,-3.0568,-3.0575,-3.0583,-3.0689,0,0,-3.0605,-3.0608,0,0,0,0,0,0,0,0,-3.0238,-3.0252,-3.0373,-3.0375,-3.0377,-3.0455,-3.0444,-3.0553,-3.0464,-3.043,-3.0457,-3.0453,-3.0535,-3.0545,-3.0573,-3.0694,-3.0699,-3.0606,-3.061,-3.0614,-3.0616,0,0,0,0,0,0,0,-3.023,-3.0247,-3.0414,-3.0374,-3.0377,-3.0372,-3.0384,-3.0464,-3.0498,-3.0433,-3.0432,-3.0445,-3.0536,-3.0566,-3.0575,-3.0701,-3.0606,-3.0612,-3.0617,-3.062,-3.0916,-3.0919,0,0,0,0,0,0,-3.0221,-3.0241,-3.041,-3.0417,-3.0298,-3.0379,-3.0392,-3.0433,-3.0498,-3.0504,-3.0448,-3.0444,-3.0555,-3.0567,-3.0579,-3.0709,-3.0613,-3.062,-3.0625,-3.0913,-3.0917,-3.092,0,0,0,0,0,0,-3.0216,-3.0236,-3.0406,-3.0329,-3.035,-3.0386,-3.0432,-3.0437,-3.0467,-3.0509,-3.0515,-3.0472,-3.0553,-3.0569,-3.0662,-3.0712,-3.0624,-3.063,-3.0909,-3.0914,-3.0919,-3.0967,0,0,0,0,0,0,-3.021,-3.0235,-3.0275,-3.033,-3.0354,-3.0487,-3.0436,-3.0441,-3.0479,-3.0475,-3.0533,-3.054,-3.0552,-3.0651,-3.0669,-3.0721,-3.0636,-3.0904,-3.0911,-3.0917,-3.0961,-3.0974,-3.0984,0,0,0,0,0,-3.0201,-3.0284,-3.0277,-3.0298,-3.0406,-3.0489,-3.0503,-3.0515,-3.0484,-3.0525,-3.0552,-3.0538,-3.0704,-3.0661,-3.0681,-3.0736,-3.0901,-3.0909,-3.0916,-3.0956,-3.0971,-3.0984,0,0,0,0,0,0,-3.0235,-3.0292,-3.0284,-3.0388,-3.0434,-3.0486,-3.0538,-3.053,-3.0587,-3.0581,-3.0593,-3.0606,-3.0701,-3.0728,-3.0679,-3.0842,-3.0798,-3.081,-3.0821,-3.0836,-3.0847,-3.0838,-3.0642,0,0,0,0,0,-3.0254,-3.0317,-3.0364,-3.045,-3.0474,-3.0502,-3.0539,-3.0544,-3.0592,-3.0612,-3.0646,-3.0693,-3.0756,-3.0798,-3.0858,-3.0965,-3.0978,-3.1013,-3.1024,-3.1033,-3.1044,-3.1103,-3.1119,-3.0946,-3.0946,-3.0946,0,0,-3.0295,-3.0334,-3.0373,-3.0458,-3.0494,-3.056,-3.0518,-3.0589,-3.0638,-3.0623,-3.0713,-3.0739,-3.0793,-3.0894,-3.0941,-3.0919,-3.1094,-3.1043,-3.105,-3.1055,-3.1113,-3.1129,-3.1144,-3.0951,-3.095,-3.0949,0,0,-3.0402,-3.0438,-3.0514,-3.0551,-3.0607,-3.0625,-3.0644,-3.0697,-3.0714,-3.0805,-3.0795,-3.0853,-3.0961,-3.1,-3.1034,-3.1157,-3.1147,-3.1177,-3.1235,-3.1293,-3.1307,-3.1319,-3.1363,-3.1379,-3.1187,-3.1187,-3.1187,0,-3.0446,-3.0543,-3.0554,-3.0626,-3.0664,-3.0654,-3.0731,-3.0767,-3.084,-3.0866,-3.0842,-3.0978,-3.1013,-3.1123,-3.1153,-3.1181,-3.1203,-3.117,-3.1304,-3.1316,-3.1328,-3.137,-3.1387,-3.119,-3.119,-3.119,-3.1189,0,-3.0594,-3.0662,-3.0717,-3.0788,-3.0832,-3.0906,-3.0929,-3.0972,-3.0974,-3.0995,-3.1088,-3.113,-3.1199,-3.1226,-3.1228,-3.1337,-3.1322,-3.1301,-3.1256,-3.1348,-3.1388,-3.1404,-3.1195,-3.1194,-3.1193,-3.1192,0,0,-3.0726,-3.0801,-3.0821,-3.0853,-3.0914,-3.0967,-3.1041,-3.1109,-3.1146,-3.1197,-3.126,-3.1352,-3.1332,-3.1371,-3.1378,-3.1429,-3.1524,-3.1401,-3.1403,-3.1423,-3.1647,-3.1663,-3.1681,-3.1517,-3.152,-3.1523,-3.1643,0,-3.0839,-3.0969,-3.0982,-3.1099,-3.1162,-3.1153,-3.1218,-3.1263,-3.1285,-3.1342,-3.1366,-3.1431,-3.1401,-3.1424,-3.1474,-3.1502,-3.1569,-3.1493,-3.1576,-3.1579,-3.1563,-3.1702,-3.1719,-3.183,-3.1658,-3.1661,-3.1663,0,-3.0988,-3.1043,-3.1167,-3.1219,-3.1246,-3.1304,-3.1367,-3.1422,-3.1473,-3.1485,-3.1529,-3.1529,-3.1606,-3.1559,-3.1665,-3.1613,-3.1648,-3.1667,-3.1672,-3.168,-3.1626,-3.1715,-3.1866,-3.1882,-3.1688,-3.1686,-3.1684,0,-3.1072,-3.1177,-3.1264,-3.1292,-3.1356,-3.1397,-3.1425,-3.1473,-3.1513,-3.1568,-3.1594,-3.1658,-3.1692,-3.1742,-3.1759,-3.1723,-3.1865,-3.182,-3.1878,-3.1878,-3.1908,-3.1906,-3.2067,-3.1931,-3.193,-3.193,-3.193,0,-3.1197,-3.1273,-3.1303,-3.1357,-3.1442,-3.1456,-3.154,-3.1566,-3.1609,-3.1668,-3.1664,-3.172,-3.174,-3.1799,-3.1813,-3.19,-3.1915,-3.1928,-3.1931,-3.1929,-3.1927,-3.1951,-3.1944,-3.1935,-3.1934,-3.1933,-3.1932,0,-3.1305,-3.1328,-3.1423,-3.1475,-3.149,-3.1551,-3.1596,-3.1648,-3.1669,-3.1744,-3.1763,-3.1796,-3.1866,-3.1888,-3.1972,-3.1982,-3.2083,-3.2079,-3.2066,-3.2066,-3.2124,-3.2118,-3.2307,-3.2332,-3.2178,-3.218,-3.2181,0,-3.1384,-3.1442,-3.15,-3.154,-3.157,-3.1633,-3.1674,-3.169,-3.1732,-3.1795,-3.184,-3.1909,-3.1965,-3.2077,-3.2109,-3.2173,-3.2171,-3.2233,-3.2181,-3.2177,-3.2173,-3.2169,-3.2175,-3.2242,-3.2244,-3.2245,-3.2246,0,-3.1521,-3.1529,-3.1588,-3.1651,-3.17,-3.175,-3.1799,-3.1831,-3.1854,-3.1903,-3.1974,-3.2017,-3.2103,-3.2172,-3.2238,-3.2267,-3.2261,-3.2262,-3.2279,-3.2278,-3.2268,-3.2274,-3.2093,-3.2258,-3.2257,-3.2256,-3.2255,-3.2255,-3.1617,-3.1668,-3.1718,-3.1783,-3.1821,-3.1867,-3.1919,-3.1947,-3.2006,-3.2077,-3.2083,-3.216,-3.221,-3.2298,-3.2331,-3.2392,-3.2374,-3.2399,-3.2405,-3.2411,-3.2416,-3.2258,-3.2404,-3.2403,-3.2403,-3.2403,-3.2403,0,-3.1754,-3.1785,-3.1845,-3.1914,-3.1966,-3.1955,-3.2008,-3.2052,-3.212,-3.2167,-3.2222,-3.2304,-3.2371,-3.2409,-3.2476,-3.2517,-3.2516,-3.2534,-3.2532,-3.2539,-3.2427,-3.2406,-3.2534,-3.2534,-3.2534,-3.2534,-3.2534,-3.2534,-3.1831,-3.1918,-3.1933,-3.2039,-3.207,-3.2145,-3.2176,-3.2219,-3.2256,-3.2348,-3.2404,-3.2427,-3.2471,-3.2541,-3.2602,-3.2611,-3.2636,-3.2657,-3.2664,-3.256,-3.2546,-3.2533,-3.2514,-3.2662,-3.2662,-3.277,-3.2771,-3.2772]}]]